M I D A S
Marine Information and Data Acquisition System
Tripno 2089 of the Zeeleeuw from 2010-11-26 08:59:12 to 2010-11-26 16:08:00
Back to CruiseResearch ActivitiesStationsMapUnderway DataData graphs

EquipmentUnitsComments
TimeDGPSUTC
LatitudeDGPSDM.mWGS84
LongitudeDGPSDM.mWGS84
SpeedMeteo Stationm/sRelative wind speed
DirectionMeteo StationdegRelative wind direction
TemperatureMeteo Stationdeg CelciusAir temperature
PressureMeteo StationPaAtmospheric pressure
HumidityMeteo Station%Relative humidity
Missing or incorrect values are displayed as -999
Metereological data collected by the RV Zeeleeuw from 2010-11-26 07:58:40 to 2010-11-29 12:37:09
                                                                                    Next 1000 lines
Time Latitude Longitude Speed Direction Temperature Pressure Humidity
2010-11-26 07:58:51 51°13.662 2°55.959 -999 355 1 100520 41
2010-11-26 07:58:55 51°13.662 2°55.959 -999 350 1 100520 41
2010-11-26 07:59:00 51°13.662 2°55.959 -999 351 1 100520 41
2010-11-26 07:59:06 51°13.661 2°55.959 -999 350 1 100520 41
2010-11-26 07:59:11 51°13.661 2°55.959 -999 349 1 100520 41
2010-11-26 07:59:15 51°13.661 2°55.959 -999 349 1 100520 41
2010-11-26 07:59:21 51°13.661 2°55.959 -999 350 1 100520 41
2010-11-26 07:59:26 51°13.661 2°55.959 -999 348 1 100520 41
2010-11-26 07:59:31 51°13.661 2°55.959 -999 349 1 100520 41
2010-11-26 07:59:35 51°13.661 2°55.959 -999 351 1 100520 40
2010-11-26 07:59:41 51°13.661 2°55.959 -999 348 1 100520 40
2010-11-26 07:59:46 51°13.661 2°55.959 -999 348 1 100520 41
2010-11-26 07:59:51 51°13.661 2°55.959 -999 353 1 100520 41
2010-11-26 07:59:55 51°13.661 2°55.959 -999 353 1 100520 41
2010-11-26 08:00:01 51°13.661 2°55.959 -999 345 1 100520 41
2010-11-26 08:00:05 51°13.661 2°55.959 -999 351 1 100520 41
2010-11-26 08:00:11 51°13.661 2°55.958 -999 349 1 100520 41
2010-11-26 08:00:15 51°13.661 2°55.958 -999 351 1 100520 41
2010-11-26 08:00:20 51°13.661 2°55.958 -999 355 1 100520 41
2010-11-26 08:00:26 51°13.661 2°55.959 -999 354 1 100510 41
2010-11-26 08:00:31 51°13.661 2°55.959 -999 356 1 100510 41
2010-11-26 08:00:35 51°13.662 2°55.959 -999 356 1 100520 41
2010-11-26 08:00:40 51°13.662 2°55.958 -999 353 1 100520 41
2010-11-26 08:00:46 51°13.663 2°55.956 -999 356 1 100520 41
2010-11-26 08:00:51 51°13.664 2°55.953 -999 356 1 100520 41
2010-11-26 08:00:55 51°13.664 2°55.95 -999 356 1 100510 41
2010-11-26 08:01:00 51°13.666 2°55.945 -999 2 1 100510 41
2010-11-26 08:01:06 51°13.668 2°55.938 -999 2 1 100520 41
2010-11-26 08:01:12 51°13.671 2°55.93 -999 6 1 100520 41
2010-11-26 08:01:18 51°13.674 2°55.921 -999 26 1 100520 41
2010-11-26 08:01:23 51°13.676 2°55.913 -999 26 1 100520 41
2010-11-26 08:01:29 51°13.68 2°55.903 -999 21 1 100520 41
2010-11-26 08:01:34 51°13.683 2°55.894 -999 21 1 100520 41
2010-11-26 08:01:39 51°13.685 2°55.885 -999 27 1 100520 41
2010-11-26 08:01:44 51°13.688 2°55.875 -999 24 1 100520 41
2010-11-26 08:01:49 51°13.69 2°55.865 -999 38 1 100510 41
2010-11-26 08:01:54 51°13.693 2°55.855 -999 42 1 100510 41
2010-11-26 08:01:59 51°13.695 2°55.845 -999 41 1 100510 41
2010-11-26 08:02:04 51°13.697 2°55.836 -999 36 1 100510 41
2010-11-26 08:02:09 51°13.699 2°55.826 -999 40 1 100520 41
2010-11-26 08:02:14 51°13.701 2°55.816 -999 34 1 100520 41
2010-11-26 08:02:19 51°13.702 2°55.807 -999 33 1 100520 40
2010-11-26 08:02:24 51°13.704 2°55.798 -999 35 1 100520 40
2010-11-26 08:02:29 51°13.705 2°55.79 -999 23 1 100520 41
2010-11-26 08:02:34 51°13.706 2°55.781 -999 34 1 100520 41
2010-11-26 08:02:39 51°13.707 2°55.773 -999 43 1 100520 41
2010-11-26 08:02:44 51°13.708 2°55.765 -999 38 1 100520 41
2010-11-26 08:02:49 51°13.709 2°55.758 -999 32 1 100510 41
2010-11-26 08:02:54 51°13.709 2°55.751 -999 28 1 100510 41
2010-11-26 08:02:58 51°13.709 2°55.746 -999 37 1 100520 41
2010-11-26 08:03:03 51°13.71 2°55.74 -999 43 1 100520 41
2010-11-26 08:03:08 51°13.71 2°55.735 -999 43 1 100520 41
2010-11-26 08:03:13 51°13.71 2°55.732 -999 38 1 100520 41
2010-11-26 08:03:18 51°13.711 2°55.729 -999 36 1 100510 41
2010-11-26 08:03:23 51°13.711 2°55.727 -999 28 1 100510 41
2010-11-26 08:03:27 51°13.712 2°55.725 -999 42 1 100510 41
2010-11-26 08:03:32 51°13.713 2°55.724 -999 44 1 100510 41
2010-11-26 08:03:37 51°13.714 2°55.722 -999 43 1 100520 41
2010-11-26 08:03:42 51°13.715 2°55.72 -999 37 1 100520 41
2010-11-26 08:03:47 51°13.716 2°55.719 -999 33 1 100520 41
2010-11-26 08:03:51 51°13.717 2°55.718 -999 36 1 100520 41
2010-11-26 08:03:56 51°13.718 2°55.717 -999 38 1 100510 41
2010-11-26 08:04:01 51°13.719 2°55.715 -999 34 1 100510 41
2010-11-26 08:04:06 51°13.721 2°55.714 -999 22 1 100520 41
2010-11-26 08:04:11 51°13.723 2°55.712 -999 33 1 100520 41
2010-11-26 08:04:16 51°13.725 2°55.711 -999 22 1 100510 41
2010-11-26 08:04:21 51°13.727 2°55.71 -999 34 1 100510 41
2010-11-26 08:04:26 51°13.729 2°55.708 -999 22 1 100520 41
2010-11-26 08:04:31 51°13.731 2°55.706 -999 33 1 100520 41
2010-11-26 08:04:36 51°13.734 2°55.704 -999 22 1 100520 41
2010-11-26 08:04:41 51°13.737 2°55.702 -999 33 1 100520 41
2010-11-26 08:04:46 51°13.74 2°55.699 -999 22 1 100520 41
2010-11-26 08:04:51 51°13.743 2°55.696 -999 34 1 100520 41
2010-11-26 08:04:55 51°13.746 2°55.693 -999 22 1 100520 40
2010-11-26 08:05:00 51°13.751 2°55.689 -999 34 1 100520 40
2010-11-26 08:05:06 51°13.757 2°55.683 -999 22 1 100520 41
2010-11-26 08:05:11 51°13.763 2°55.678 -999 260 1 100520 41
2010-11-26 08:05:15 51°13.768 2°55.674 -999 258 1 100510 41
2010-11-26 08:05:21 51°13.776 2°55.667 -999 249 1 100510 41
2010-11-26 08:05:26 51°13.784 2°55.661 -999 22 1 100510 40
2010-11-26 08:05:31 51°13.791 2°55.655 -999 34 1 100510 40
2010-11-26 08:05:37 51°13.802 2°55.648 -999 22 1 100510 41
2010-11-26 08:05:43 51°13.813 2°55.641 -999 33 1 100510 41
2010-11-26 08:05:47 51°13.821 2°55.636 -999 22 1 100510 41
2010-11-26 08:05:53 51°13.833 2°55.628 -999 325 1 100510 41
2010-11-26 08:05:58 51°13.844 2°55.621 -999 325 1 100510 41
2010-11-26 08:06:03 51°13.855 2°55.614 -999 322 1 100510 41
2010-11-26 08:06:07 51°13.865 2°55.608 -999 324 1 100510 41
2010-11-26 08:06:12 51°13.877 2°55.601 -999 325 1 100510 41
2010-11-26 08:06:17 51°13.889 2°55.593 -999 322 1 100510 41
2010-11-26 08:06:22 51°13.902 2°55.586 -999 325 1 100510 41
2010-11-26 08:06:27 51°13.915 2°55.577 -999 320 1 100510 41
2010-11-26 08:06:31 51°13.925 2°55.571 -999 322 1 100510 41
2010-11-26 08:06:36 51°13.938 2°55.562 -999 325 1 100510 41
2010-11-26 08:06:42 51°13.954 2°55.551 -999 327 1 100510 41
2010-11-26 08:06:47 51°13.967 2°55.543 -999 324 1 100510 41
2010-11-26 08:06:51 51°13.978 2°55.536 -999 325 1 100510 41
2010-11-26 08:06:56 51°13.992 2°55.527 -999 319 1 100500 41
2010-11-26 08:07:01 51°14.005 2°55.519 0.1 325 1 100500 41
2010-11-26 08:07:06 51°14.018 2°55.51 0.1 325 1 100500 41
2010-11-26 08:07:11 51°14.031 2°55.501 -999 325 1 100500 41
2010-11-26 08:07:15 51°14.042 2°55.494 -999 329 1 100510 41
2010-11-26 08:07:21 51°14.058 2°55.482 -999 326 1 100510 41
2010-11-26 08:07:26 51°14.071 2°55.473 -999 327 1 100510 41
2010-11-26 08:07:31 51°14.085 2°55.463 -999 322 1 100510 41
2010-11-26 08:07:35 51°14.095 2°55.455 -999 327 1 100500 40
2010-11-26 08:07:40 51°14.108 2°55.444 -999 327 1 100500 40
2010-11-26 08:07:45 51°14.121 2°55.434 -999 325 1 100500 41
2010-11-26 08:07:51 51°14.137 2°55.421 -999 328 1 100500 41
2010-11-26 08:07:55 51°14.147 2°55.412 -999 328 1 100510 41
2010-11-26 08:08:01 51°14.162 2°55.398 -999 323 1 100510 41
2010-11-26 08:08:05 51°14.172 2°55.39 -999 325 1 100500 41
2010-11-26 08:08:11 51°14.188 2°55.376 -999 319 1 100500 41
2010-11-26 08:08:15 51°14.198 2°55.366 -999 320 1 100500 41
2010-11-26 08:08:20 51°14.21 2°55.354 -999 320 1 100500 41
2010-11-26 08:08:26 51°14.225 2°55.339 -999 321 1 100500 41
2010-11-26 08:08:31 51°14.238 2°55.328 -999 328 1 100500 41
2010-11-26 08:08:35 51°14.247 2°55.318 -999 326 1 100510 41
2010-11-26 08:08:40 51°14.26 2°55.306 -999 326 1 100510 41
2010-11-26 08:08:46 51°14.275 2°55.292 -999 327 1 100500 41
2010-11-26 08:08:51 51°14.288 2°55.28 -999 327 1 100500 41
2010-11-26 08:08:55 51°14.298 2°55.27 -999 323 1 100500 41
2010-11-26 08:09:01 51°14.313 2°55.256 -999 322 1 100500 41
2010-11-26 08:09:06 51°14.326 2°55.244 -999 327 1 100500 41
2010-11-26 08:09:11 51°14.339 2°55.233 -999 331 1 100500 41
2010-11-26 08:09:15 51°14.349 2°55.224 -999 331 1 100500 41
2010-11-26 08:09:21 51°14.364 2°55.209 -999 324 1 100500 41
2010-11-26 08:09:26 51°14.377 2°55.198 -999 330 1 100500 41
2010-11-26 08:09:31 51°14.391 2°55.185 -999 326 1 100500 41
2010-11-26 08:09:35 51°14.401 2°55.175 -999 330 1 100500 41
2010-11-26 08:09:40 51°14.415 2°55.163 -999 328 1 100500 41
2010-11-26 08:09:46 51°14.431 2°55.148 -999 327 1 100500 41
2010-11-26 08:09:51 51°14.444 2°55.135 -999 331 1 100500 41
2010-11-26 08:09:55 51°14.455 2°55.124 -999 333 1 100500 41
2010-11-26 08:10:00 51°14.468 2°55.111 -999 327 1 100500 41
2010-11-26 08:10:05 51°14.482 2°55.097 -999 331 1 100510 41
2010-11-26 08:10:11 51°14.498 2°55.079 -999 335 1 100510 41
2010-11-26 08:10:15 51°14.508 2°55.067 -999 327 1 100500 40
2010-11-26 08:10:20 51°14.522 2°55.052 -999 327 1 100500 40
2010-11-26 08:10:25 51°14.535 2°55.036 -999 329 1 100500 41
2010-11-26 08:10:31 51°14.552 2°55.016 -999 329 1 100500 41
2010-11-26 08:10:35 51°14.562 2°55.003 -999 328 1 100500 41
2010-11-26 08:10:40 51°14.577 2°54.987 -999 327 1 100500 41
2010-11-26 08:10:45 51°14.59 2°54.97 -999 328 1 100500 41
2010-11-26 08:10:51 51°14.607 2°54.948 -999 323 1 100500 41
2010-11-26 08:10:55 51°14.617 2°54.933 -999 326 1 100500 41
2010-11-26 08:11:01 51°14.633 2°54.911 -999 326 1 100500 41
2010-11-26 08:11:06 51°14.645 2°54.89 -999 324 1 100490 41
2010-11-26 08:11:11 51°14.658 2°54.869 -999 322 1 100490 41
2010-11-26 08:11:15 51°14.668 2°54.852 -999 321 1 100500 41
2010-11-26 08:11:21 51°14.683 2°54.828 -999 322 1 100500 41
2010-11-26 08:11:26 51°14.696 2°54.807 -999 323 1 100500 41
2010-11-26 08:11:31 51°14.709 2°54.788 -999 329 1 100500 41
2010-11-26 08:11:35 51°14.719 2°54.773 -999 330 1 100490 41
2010-11-26 08:11:41 51°14.735 2°54.749 -999 325 1 100490 41
2010-11-26 08:11:46 51°14.748 2°54.729 -999 325 1 100500 41
2010-11-26 08:11:51 51°14.761 2°54.709 -999 325 1 100500 41
2010-11-26 08:11:55 51°14.771 2°54.694 -999 326 1 100500 41
2010-11-26 08:12:00 51°14.784 2°54.674 -999 327 1 100500 41
2010-11-26 08:12:06 51°14.8 2°54.651 -999 327 1 100510 41
2010-11-26 08:12:11 51°14.813 2°54.63 -999 328 1 100510 41
2010-11-26 08:12:15 51°14.823 2°54.615 -999 325 1.1 100500 41
2010-11-26 08:12:21 51°14.838 2°54.591 -999 327 1.1 100500 41
2010-11-26 08:12:26 51°14.851 2°54.571 -999 326 1.1 100490 41
2010-11-26 08:12:31 51°14.864 2°54.551 0.1 325 1.1 100490 41
2010-11-26 08:12:35 51°14.875 2°54.535 0.1 325 1.1 100500 41
2010-11-26 08:12:40 51°14.888 2°54.514 -999 325 1.1 100500 41
2010-11-26 08:12:45 51°14.901 2°54.494 -999 329 1.1 100500 41
2010-11-26 08:12:51 51°14.917 2°54.471 -999 328 1.1 100500 41
2010-11-26 08:12:55 51°14.928 2°54.455 1.5 327 1.1 100490 40
2010-11-26 08:13:00 51°14.942 2°54.436 0.3 329 1.1 100490 40
2010-11-26 08:13:06 51°14.959 2°54.414 0.5 329 1.1 100500 41
2010-11-26 08:13:11 51°14.973 2°54.397 1.4 334 1.1 100500 41
2010-11-26 08:13:15 51°14.984 2°54.384 0.9 330 1.2 100500 40
2010-11-26 08:13:21 51°15.001 2°54.364 1.2 334 1.2 100500 40
2010-11-26 08:13:26 51°15.015 2°54.348 0.7 331 1.2 100490 40
2010-11-26 08:13:31 51°15.029 2°54.332 1 330 1.2 100490 40
2010-11-26 08:13:35 51°15.04 2°54.318 0.7 332 1.2 100490 43
2010-11-26 08:13:41 51°15.058 2°54.298 0.1 330 1.2 100490 43
2010-11-26 08:13:46 51°15.072 2°54.281 1.3 329 1.2 100500 39
2010-11-26 08:13:51 51°15.086 2°54.264 1.5 331 1.2 100500 39
2010-11-26 08:13:55 51°15.098 2°54.251 0.9 331 1.2 100500 41
2010-11-26 08:14:00 51°15.112 2°54.233 1.3 330 1.2 100500 41
2010-11-26 08:14:06 51°15.13 2°54.213 2.1 333 1.2 100490 43
2010-11-26 08:14:11 51°15.145 2°54.196 1.7 330 1.2 100490 43
2010-11-26 08:14:15 51°15.156 2°54.182 1 330 1.3 100490 42
2010-11-26 08:14:20 51°15.171 2°54.165 1.1 332 1.3 100490 42
2010-11-26 08:14:26 51°15.188 2°54.142 0.8 330 1.3 100490 42
2010-11-26 08:14:31 51°15.202 2°54.124 2.2 329 1.3 100490 42
2010-11-26 08:14:35 51°15.213 2°54.108 2.3 329 1.3 100500 43
2010-11-26 08:14:41 51°15.23 2°54.084 2.1 329 1.3 100500 43
2010-11-26 08:14:46 51°15.244 2°54.065 1.3 330 1.3 100490 42
2010-11-26 08:14:51 51°15.258 2°54.045 2.2 326 1.3 100490 42
2010-11-26 08:14:55 51°15.269 2°54.03 1.6 331 1.3 100500 39
2010-11-26 08:15:00 51°15.283 2°54.011 1.3 326 1.3 100500 39
2010-11-26 08:15:05 51°15.297 2°53.992 1 327 1.3 100500 42
2010-11-26 08:15:11 51°15.314 2°53.969 1.5 329 1.3 100500 42
2010-11-26 08:15:15 51°15.325 2°53.954 1.1 327 1.3 100490 39
2010-11-26 08:15:21 51°15.342 2°53.931 1.5 327 1.3 100490 39
2010-11-26 08:15:26 51°15.355 2°53.911 1.5 328 1.3 100500 41
2010-11-26 08:15:31 51°15.369 2°53.891 2.7 330 1.3 100500 41
2010-11-26 08:15:35 51°15.379 2°53.875 2.2 328 1.4 100490 42
2010-11-26 08:15:40 51°15.392 2°53.854 1.8 325 1.4 100490 42
2010-11-26 08:15:46 51°15.408 2°53.829 3.8 330 1.4 100500 41
2010-11-26 08:15:51 51°15.421 2°53.809 3.6 327 1.4 100500 41
2010-11-26 08:15:55 51°15.432 2°53.793 3.6 327 1.4 100490 41
2010-11-26 08:16:01 51°15.449 2°53.77 3.2 318 1.4 100490 41
2010-11-26 08:16:06 51°15.463 2°53.751 4 318 1.4 100490 40
2010-11-26 08:16:11 51°15.478 2°53.732 1.3 328 1.4 100490 40
2010-11-26 08:16:15 51°15.489 2°53.717 1.6 330 1.4 100490 40
2010-11-26 08:16:20 51°15.504 2°53.699 2.4 332 1.4 100490 40
2010-11-26 08:16:26 51°15.522 2°53.678 2.3 329 1.4 100500 39
2010-11-26 08:16:31 51°15.537 2°53.661 2.9 330 1.4 100500 39
2010-11-26 08:16:35 51°15.549 2°53.648 1.9 330 1.5 100490 43
2010-11-26 08:16:41 51°15.568 2°53.629 2.3 330 1.5 100490 43
2010-11-26 08:16:45 51°15.58 2°53.617 3.5 331 1.5 100490 40
2010-11-26 08:16:51 51°15.6 2°53.6 1.5 331 1.5 100490 40
2010-11-26 08:16:55 51°15.613 2°53.589 1.8 335 1.5 100500 43
2010-11-26 08:17:00 51°15.63 2°53.577 1.4 335 1.5 100500 43
2010-11-26 08:17:05 51°15.646 2°53.564 2 333 1.5 100500 43
2010-11-26 08:17:11 51°15.666 2°53.552 2.5 333 1.5 100500 43
2010-11-26 08:17:15 51°15.679 2°53.542 0.9 341 1.5 100500 41
2010-11-26 08:17:21 51°15.699 2°53.53 0.9 333 1.5 100500 41
2010-11-26 08:17:26 51°15.716 2°53.519 1.2 335 1.5 100500 42
2010-11-26 08:17:31 51°15.733 2°53.509 1.6 339 1.5 100500 42
2010-11-26 08:17:35 51°15.746 2°53.5 1 340 1.5 100500 43
2010-11-26 08:17:41 51°15.767 2°53.487 1.5 341 1.5 100500 43
2010-11-26 08:17:45 51°15.78 2°53.478 1.5 340 1.5 100500 39
2010-11-26 08:17:51 51°15.8 2°53.465 2.2 341 1.5 100500 39
2010-11-26 08:17:55 51°15.814 2°53.457 0.5 341 1.5 100500 43
2010-11-26 08:18:01 51°15.834 2°53.444 0.1 339 1.5 100500 43
2010-11-26 08:18:06 51°15.851 2°53.433 1.5 338 1.5 100500 41
2010-11-26 08:18:11 51°15.867 2°53.422 1.2 336 1.5 100500 41
2010-11-26 08:18:15 51°15.88 2°53.413 0.7 337 1.6 100500 42
2010-11-26 08:18:21 51°15.9 2°53.399 0.3 332 1.6 100500 42
2010-11-26 08:18:26 51°15.917 2°53.388 0.9 339 1.6 100500 41
2010-11-26 08:18:31 51°15.933 2°53.376 0.8 339 1.6 100500 41
2010-11-26 08:18:35 51°15.947 2°53.367 0.2 334 1.6 100490 41
2010-11-26 08:18:41 51°15.966 2°53.353 0.1 341 1.6 100490 41
2010-11-26 08:18:46 51°15.983 2°53.342 0.1 339 1.6 100500 39
2010-11-26 08:18:51 51°15.999 2°53.33 0.1 338 1.6 100500 39
2010-11-26 08:18:55 51°16.012 2°53.32 0.1 338 1.7 100500 41
2010-11-26 08:19:00 51°16.029 2°53.308 0.1 339 1.7 100500 41
2010-11-26 08:19:05 51°16.045 2°53.296 1.4 339 1.7 100500 41
2010-11-26 08:19:11 51°16.065 2°53.282 0.1 338 1.7 100500 41
2010-11-26 08:19:15 51°16.078 2°53.272 1.2 338 1.7 100490 41
2010-11-26 08:19:20 51°16.095 2°53.261 0.3 337 1.7 100490 41
2010-11-26 08:19:25 51°16.111 2°53.249 1.5 337 1.7 100500 41
2010-11-26 08:19:31 51°16.131 2°53.235 0.7 339 1.7 100500 41
2010-11-26 08:19:35 51°16.144 2°53.226 0.8 339 1.7 100500 41
2010-11-26 08:19:41 51°16.164 2°53.211 2.1 337 1.7 100500 41
2010-11-26 08:19:45 51°16.177 2°53.202 0.5 337 1.7 100500 39
2010-11-26 08:19:51 51°16.197 2°53.188 1.7 332 1.7 100500 39
2010-11-26 08:19:55 51°16.211 2°53.179 0.7 330 1.7 100490 40
2010-11-26 08:20:00 51°16.227 2°53.168 1 330 1.7 100490 40
2010-11-26 08:20:05 51°16.244 2°53.156 0.3 329 1.7 100500 44
2010-11-26 08:20:11 51°16.263 2°53.142 0.2 331 1.7 100500 44
2010-11-26 08:20:15 51°16.277 2°53.133 0.1 332 1.8 100500 41
2010-11-26 08:20:21 51°16.296 2°53.119 0.6 330 1.8 100500 41
2010-11-26 08:20:26 51°16.313 2°53.107 0.6 332 1.8 100490 42
2010-11-26 08:20:31 51°16.329 2°53.096 1 332 1.8 100490 42
2010-11-26 08:20:35 51°16.343 2°53.087 0.7 332 1.8 100490 42
2010-11-26 08:20:41 51°16.363 2°53.073 0.4 325 1.8 100490 42
2010-11-26 08:20:46 51°16.379 2°53.06 0.2 327 1.8 100500 42
2010-11-26 08:20:51 51°16.396 2°53.049 0.1 327 1.8 100500 42
2010-11-26 08:20:55 51°16.409 2°53.039 0.5 327 1.8 100500 42
2010-11-26 08:21:00 51°16.425 2°53.027 0.1 333 1.8 100500 42
2010-11-26 08:21:05 51°16.442 2°53.016 0.1 329 1.8 100500 41
2010-11-26 08:21:11 51°16.462 2°53.002 -999 334 1.8 100500 41
2010-11-26 08:21:15 51°16.475 2°52.992 -999 329 1.8 100500 43
2010-11-26 08:21:21 51°16.495 2°52.979 -999 329 1.8 100500 43
2010-11-26 08:21:26 51°16.512 2°52.967 1.3 328 1.8 100500 40
2010-11-26 08:21:31 51°16.528 2°52.956 1.2 333 1.8 100500 40
2010-11-26 08:21:35 51°16.542 2°52.946 1.4 334 1.8 100500 41
2010-11-26 08:21:40 51°16.558 2°52.935 0.9 331 1.8 100500 41
2010-11-26 08:21:45 51°16.575 2°52.923 0.3 333 1.8 100500 41
2010-11-26 08:21:51 51°16.595 2°52.909 0.2 333 1.8 100500 41
2010-11-26 08:21:55 51°16.608 2°52.9 0.2 335 1.8 100500 41
2010-11-26 08:22:00 51°16.625 2°52.889 0.1 335 1.8 100500 41
2010-11-26 08:22:06 51°16.645 2°52.875 1.2 328 1.8 100500 43
2010-11-26 08:22:11 51°16.662 2°52.864 0.1 331 1.8 100500 43
2010-11-26 08:22:15 51°16.675 2°52.854 0.1 335 1.8 100500 41
2010-11-26 08:22:21 51°16.695 2°52.84 -999 331 1.8 100500 41
2010-11-26 08:22:25 51°16.708 2°52.831 -999 332 1.8 100500 41
2010-11-26 08:22:31 51°16.728 2°52.817 -999 333 1.8 100500 41
2010-11-26 08:22:35 51°16.741 2°52.808 -999 334 1.8 100490 41
2010-11-26 08:22:40 51°16.757 2°52.797 -999 335 1.8 100490 41
2010-11-26 08:22:46 51°16.776 2°52.784 -999 332 1.8 100500 41
2010-11-26 08:22:51 51°16.793 2°52.773 -999 333 1.8 100500 41
2010-11-26 08:22:55 51°16.806 2°52.763 -999 333 1.8 100500 41
2010-11-26 08:23:01 51°16.825 2°52.75 -999 330 1.8 100500 41
2010-11-26 08:23:06 51°16.841 2°52.739 0.1 331 1.8 100500 41
2010-11-26 08:23:11 51°16.857 2°52.727 1.1 333 1.8 100500 41
2010-11-26 08:23:15 51°16.87 2°52.718 0.9 330 1.8 100490 42
2010-11-26 08:23:20 51°16.887 2°52.707 1.1 328 1.8 100490 42
2010-11-26 08:23:26 51°16.906 2°52.693 0.5 328 1.9 100490 41
2010-11-26 08:23:31 51°16.922 2°52.682 0.3 330 1.9 100490 41
2010-11-26 08:23:35 51°16.935 2°52.673 0.6 329 1.9 100490 39
2010-11-26 08:23:40 51°16.952 2°52.662 0.1 334 1.9 100490 39
2010-11-26 08:23:45 51°16.969 2°52.653 0.1 333 1.8 100500 41
2010-11-26 08:23:51 51°16.989 2°52.643 0.2 337 1.8 100500 41
2010-11-26 08:23:55 51°17.003 2°52.637 0.2 334 1.9 100500 39
2010-11-26 08:24:00 51°17.02 2°52.629 0.7 342 1.9 100500 39
2010-11-26 08:24:05 51°17.037 2°52.624 1.5 337 1.9 100490 42
2010-11-26 08:24:11 51°17.058 2°52.617 2.7 339 1.9 100490 42
2010-11-26 08:24:15 51°17.072 2°52.614 3.8 344 1.9 100490 39
2010-11-26 08:24:21 51°17.093 2°52.608 3.9 343 1.9 100490 39
2010-11-26 08:24:25 51°17.106 2°52.608 3.7 338 1.9 100500 40
2010-11-26 08:24:31 51°17.127 2°52.604 3.9 344 1.9 100500 40
2010-11-26 08:24:35 51°17.141 2°52.603 2.6 339 1.9 100500 41
2010-11-26 08:24:41 51°17.162 2°52.601 2.3 341 1.9 100500 41
2010-11-26 08:24:45 51°17.176 2°52.601 2 337 1.9 100490 43
2010-11-26 08:24:51 51°17.197 2°52.6 1.2 340 1.9 100490 43
2010-11-26 08:24:55 51°17.211 2°52.599 2 342 1.9 100490 41
2010-11-26 08:25:01 51°17.232 2°52.599 1.8 344 1.9 100490 41
2010-11-26 08:25:06 51°17.25 2°52.598 1.9 342 1.9 100490 40
2010-11-26 08:25:11 51°17.268 2°52.597 1.9 338 1.9 100490 40
2010-11-26 08:25:15 51°17.282 2°52.596 1.7 338 1.9 100500 43
2010-11-26 08:25:21 51°17.302 2°52.596 1.6 337 1.9 100500 43
2010-11-26 08:25:26 51°17.32 2°52.595 1.8 336 1.9 100500 42
2010-11-26 08:25:31 51°17.337 2°52.594 1.8 332 1.9 100500 42
2010-11-26 08:25:35 51°17.352 2°52.592 1.8 332 1.9 100500 43
2010-11-26 08:25:40 51°17.369 2°52.59 2.4 333 1.9 100500 43
2010-11-26 08:25:46 51°17.39 2°52.588 1 338 1.9 100490 40
2010-11-26 08:25:51 51°17.407 2°52.584 2.8 335 1.9 100490 40
2010-11-26 08:25:55 51°17.421 2°52.579 2 339 1.9 100490 42
2010-11-26 08:26:00 51°17.438 2°52.575 1.3 337 1.9 100490 42
2010-11-26 08:26:05 51°17.455 2°52.568 0.9 338 1.9 100490 40
2010-11-26 08:26:11 51°17.476 2°52.561 2 334 1.9 100490 40
2010-11-26 08:26:15 51°17.489 2°52.553 0.5 336 1.9 100490 39
2010-11-26 08:26:20 51°17.506 2°52.545 1.4 341 1.9 100490 39
2010-11-26 08:26:25 51°17.523 2°52.536 0.4 341 2 100490 42
2010-11-26 08:26:31 51°17.543 2°52.523 0.1 340 2 100490 42
2010-11-26 08:26:35 51°17.557 2°52.515 1.1 338 2 100500 41
2010-11-26 08:26:40 51°17.573 2°52.504 1.7 338 2 100500 41
2010-11-26 08:26:46 51°17.593 2°52.489 1.7 332 2 100500 40
2010-11-26 08:26:51 51°17.609 2°52.476 1.9 328 2 100500 40
2010-11-26 08:26:55 51°17.622 2°52.466 0.9 325 2 100490 41
2010-11-26 08:27:01 51°17.641 2°52.449 1.2 326 2 100490 41
2010-11-26 08:27:06 51°17.657 2°52.435 1.1 321 2.1 100490 42
2010-11-26 08:27:11 51°17.673 2°52.421 0.3 324 2.1 100490 42
2010-11-26 08:27:15 51°17.685 2°52.409 1.4 326 2.1 100490 44
2010-11-26 08:27:20 51°17.701 2°52.394 2 323 2.1 100490 44
2010-11-26 08:27:25 51°17.716 2°52.379 0.4 332 2.1 100490 41
2010-11-26 08:27:31 51°17.735 2°52.361 0.9 324 2.1 100490 41
2010-11-26 08:27:35 51°17.747 2°52.349 0.5 324 2.1 100490 43
2010-11-26 08:27:40 51°17.763 2°52.334 1.1 328 2.1 100490 43
2010-11-26 08:27:46 51°17.782 2°52.317 1.3 330 2.1 100490 41
2010-11-26 08:27:51 51°17.797 2°52.302 0.5 331 2.1 100490 41
2010-11-26 08:27:55 51°17.81 2°52.291 1.1 325 2.1 100500 40
2010-11-26 08:28:01 51°17.829 2°52.274 1.1 329 2.1 100500 40
2010-11-26 08:28:06 51°17.845 2°52.259 0.5 332 2.1 100500 42
2010-11-26 08:28:11 51°17.861 2°52.244 2.2 332 2.1 100500 42
2010-11-26 08:28:15 51°17.874 2°52.232 2.5 332 2.1 100490 42
2010-11-26 08:28:20 51°17.89 2°52.218 1.8 336 2.1 100490 42
2010-11-26 08:28:25 51°17.906 2°52.204 4 333 2.1 100490 40
2010-11-26 08:28:31 51°17.925 2°52.187 1.8 333 2.1 100490 40
2010-11-26 08:28:35 51°17.937 2°52.175 3.4 332 2.1 100490 40
2010-11-26 08:28:40 51°17.953 2°52.161 3.8 334 2.1 100490 40
2010-11-26 08:28:46 51°17.972 2°52.143 2.1 335 2.1 100490 40
2010-11-26 08:28:51 51°17.988 2°52.129 1.9 329 2.1 100490 40
2010-11-26 08:28:55 51°18.001 2°52.117 1.9 332 2.1 100490 39
2010-11-26 08:29:01 51°18.019 2°52.101 3.2 334 2.1 100490 39
2010-11-26 08:29:05 51°18.032 2°52.089 2.1 334 2.1 100490 43
2010-11-26 08:29:11 51°18.051 2°52.072 2.1 332 2.1 100490 43
2010-11-26 08:29:15 51°18.063 2°52.06 1.8 335 2.1 100490 40
2010-11-26 08:29:21 51°18.082 2°52.043 2.5 335 2.1 100490 40
2010-11-26 08:29:25 51°18.094 2°52.031 1.6 338 2.1 100480 38
2010-11-26 08:29:31 51°18.113 2°52.014 2 332 2.1 100480 38
2010-11-26 08:29:35 51°18.126 2°52.002 2.4 337 2.1 100490 40
2010-11-26 08:29:41 51°18.144 2°51.985 1.2 334 2.1 100490 40
2010-11-26 08:29:46 51°18.16 2°51.97 0.7 334 2.1 100490 41
2010-11-26 08:29:51 51°18.176 2°51.956 1.3 334 2.1 100490 41
2010-11-26 08:29:55 51°18.188 2°51.945 1.5 337 2.1 100490 40
2010-11-26 08:30:00 51°18.204 2°51.931 2.3 337 2.1 100490 40
2010-11-26 08:30:06 51°18.223 2°51.914 1.3 333 2.1 100490 40
2010-11-26 08:30:11 51°18.238 2°51.899 2 333 2.1 100490 40
2010-11-26 08:30:15 51°18.251 2°51.888 2.4 334 2.1 100500 42
2010-11-26 08:30:20 51°18.267 2°51.874 3.2 330 2.1 100500 42
2010-11-26 08:30:25 51°18.283 2°51.86 2.5 326 2.1 100490 40
2010-11-26 08:30:31 51°18.302 2°51.843 2.3 323 2.1 100490 40
2010-11-26 08:30:35 51°18.315 2°51.831 2.3 326 2.1 100490 43
2010-11-26 08:30:40 51°18.33 2°51.818 3.2 327 2.1 100490 43
2010-11-26 08:30:45 51°18.346 2°51.803 3.4 323 2.1 100490 43
2010-11-26 08:30:51 51°18.365 2°51.786 2.2 330 2.1 100490 43
2010-11-26 08:30:55 51°18.378 2°51.775 2.6 327 2.1 100490 43
2010-11-26 08:31:01 51°18.397 2°51.758 1.3 326 2.1 100490 43
2010-11-26 08:31:06 51°18.413 2°51.744 1 325 2.1 100490 42
2010-11-26 08:31:11 51°18.429 2°51.729 1.2 325 2.1 100490 42
2010-11-26 08:31:15 51°18.442 2°51.718 0.4 325 2.1 100490 41
2010-11-26 08:31:21 51°18.461 2°51.701 0.2 331 2.1 100490 41
2010-11-26 08:31:25 51°18.474 2°51.69 0.1 332 2.1 100490 42
2010-11-26 08:31:31 51°18.493 2°51.673 0.5 336 2.1 100490 42
2010-11-26 08:31:35 51°18.506 2°51.662 0.3 338 2.1 100480 40
2010-11-26 08:31:41 51°18.525 2°51.645 2.9 325 2.1 100480 40
2010-11-26 08:31:46 51°18.541 2°51.631 2 328 2.1 100490 41
2010-11-26 08:31:51 51°18.557 2°51.616 3.2 324 2.1 100490 41
2010-11-26 08:31:55 51°18.57 2°51.605 3 325 2.2 100490 40
2010-11-26 08:32:00 51°18.586 2°51.591 4.1 323 2.2 100490 40
2010-11-26 08:32:06 51°18.605 2°51.573 2.6 326 2.2 100490 42
2010-11-26 08:32:11 51°18.621 2°51.559 3 325 2.2 100490 42
2010-11-26 08:32:15 51°18.634 2°51.548 3.6 328 2.2 100490 43
2010-11-26 08:32:21 51°18.653 2°51.531 3.1 330 2.2 100490 43
2010-11-26 08:32:25 51°18.666 2°51.519 3.3 332 2.3 100480 43
2010-11-26 08:32:31 51°18.685 2°51.502 1.8 332 2.3 100480 43
2010-11-26 08:32:35 51°18.698 2°51.491 3.5 332 2.3 100490 43
2010-11-26 08:32:40 51°18.714 2°51.477 0.4 331 2.3 100490 43
2010-11-26 08:32:45 51°18.729 2°51.463 0.2 330 2.3 100480 40
2010-11-26 08:32:51 51°18.749 2°51.446 0.1 324 2.3 100480 40
2010-11-26 08:32:55 51°18.762 2°51.434 -999 324 2.3 100480 40
2010-11-26 08:33:00 51°18.777 2°51.42 -999 327 2.3 100480 40
2010-11-26 08:33:06 51°18.797 2°51.403 -999 327 2.3 100480 42
2010-11-26 08:33:11 51°18.813 2°51.388 -999 327 2.3 100480 42
2010-11-26 08:33:15 51°18.825 2°51.377 -999 326 2.2 100490 41
2010-11-26 08:33:21 51°18.844 2°51.36 -999 323 2.2 100490 41
2010-11-26 08:33:26 51°18.86 2°51.345 -999 323 2.2 100490 41
2010-11-26 08:33:31 51°18.876 2°51.331 -999 321 2.2 100490 41
2010-11-26 08:33:35 51°18.889 2°51.319 -999 324 2.3 100500 41
2010-11-26 08:33:41 51°18.909 2°51.302 -999 324 2.3 100500 41
2010-11-26 08:33:45 51°18.922 2°51.291 -999 321 2.2 100500 41
2010-11-26 08:33:51 51°18.941 2°51.274 -999 328 2.2 100500 41
2010-11-26 08:33:55 51°18.954 2°51.262 -999 325 2.3 100510 41
2010-11-26 08:34:01 51°18.973 2°51.245 -999 327 2.3 100510 41
2010-11-26 08:34:06 51°18.989 2°51.231 -999 327 2.2 100500 41
2010-11-26 08:34:11 51°19.005 2°51.216 -999 328 2.2 100500 41
2010-11-26 08:34:15 51°19.018 2°51.205 -999 323 2.2 100490 40
2010-11-26 08:34:20 51°19.035 2°51.19 -999 333 2.2 100490 40
2010-11-26 08:34:26 51°19.054 2°51.173 -999 330 2.2 100500 41
2010-11-26 08:34:31 51°19.07 2°51.158 -999 329 2.2 100500 41
2010-11-26 08:34:35 51°19.083 2°51.147 -999 328 2.2 100500 41
2010-11-26 08:34:40 51°19.1 2°51.132 -999 329 2.2 100500 41
2010-11-26 08:34:46 51°19.119 2°51.116 -999 328 2.3 100500 40
2010-11-26 08:34:51 51°19.136 2°51.101 -999 329 2.3 100500 40
2010-11-26 08:34:55 51°19.149 2°51.09 -999 331 2.3 100500 41
2010-11-26 08:35:00 51°19.165 2°51.075 -999 330 2.3 100500 41
2010-11-26 08:35:05 51°19.181 2°51.062 -999 330 2.3 100510 41
2010-11-26 08:35:11 51°19.201 2°51.045 -999 327 2.3 100510 41
2010-11-26 08:35:15 51°19.214 2°51.034 -999 333 2.3 100500 41
2010-11-26 08:35:20 51°19.23 2°51.019 -999 332 2.3 100500 41
2010-11-26 08:35:25 51°19.246 2°51.005 -999 333 2.3 100510 41
2010-11-26 08:35:31 51°19.266 2°50.988 -999 331 2.3 100510 41
2010-11-26 08:35:35 51°19.278 2°50.976 -999 330 2.3 100500 41
2010-11-26 08:35:41 51°19.298 2°50.959 -999 332 2.3 100500 41
2010-11-26 08:35:46 51°19.314 2°50.945 -999 333 2.3 100500 41
2010-11-26 08:35:51 51°19.33 2°50.93 -999 328 2.3 100500 41
2010-11-26 08:35:55 51°19.343 2°50.919 -999 330 2.3 100490 41
2010-11-26 08:36:01 51°19.363 2°50.902 -999 330 2.3 100490 41
2010-11-26 08:36:05 51°19.376 2°50.891 -999 329 2.3 100500 41
2010-11-26 08:36:11 51°19.395 2°50.874 -999 325 2.3 100500 41
2010-11-26 08:36:15 51°19.408 2°50.863 -999 324 2.3 100510 41
2010-11-26 08:36:20 51°19.424 2°50.849 -999 325 2.3 100510 41
2010-11-26 08:36:26 51°19.444 2°50.832 -999 324 2.3 100500 41
2010-11-26 08:36:31 51°19.46 2°50.818 -999 325 2.3 100500 41
2010-11-26 08:36:35 51°19.473 2°50.806 -999 325 2.3 100500 41
2010-11-26 08:36:41 51°19.493 2°50.79 -999 323 2.3 100500 41
2010-11-26 08:36:46 51°19.509 2°50.776 -999 325 2.3 100500 41
2010-11-26 08:36:51 51°19.525 2°50.762 -999 323 2.3 100500 41
2010-11-26 08:36:55 51°19.538 2°50.751 -999 321 2.3 100490 40
2010-11-26 08:37:00 51°19.554 2°50.737 -999 317 2.3 100490 40
2010-11-26 08:37:05 51°19.57 2°50.723 -999 316 2.3 100500 41
2010-11-26 08:37:11 51°19.59 2°50.706 -999 317 2.3 100500 41
2010-11-26 08:37:15 51°19.603 2°50.694 -999 316 2.3 100500 41
2010-11-26 08:37:21 51°19.622 2°50.676 -999 315 2.3 100500 41
2010-11-26 08:37:26 51°19.638 2°50.661 -999 319 2.3 100500 40
2010-11-26 08:37:31 51°19.654 2°50.647 -999 317 2.3 100500 40
2010-11-26 08:37:35 51°19.667 2°50.635 -999 319 2.3 100500 41
2010-11-26 08:37:40 51°19.683 2°50.62 -999 318 2.3 100500 41
2010-11-26 08:37:45 51°19.699 2°50.606 -999 321 2.3 100500 41
2010-11-26 08:37:51 51°19.718 2°50.588 -999 318 2.3 100500 41
2010-11-26 08:37:55 51°19.731 2°50.577 -999 318 2.3 100500 41
2010-11-26 08:38:01 51°19.75 2°50.559 -999 318 2.3 100500 41
2010-11-26 08:38:06 51°19.766 2°50.545 -999 323 2.3 100500 41
2010-11-26 08:38:11 51°19.782 2°50.53 -999 318 2.3 100500 41
2010-11-26 08:38:15 51°19.795 2°50.518 -999 319 2.3 100490 41
2010-11-26 08:38:21 51°19.814 2°50.5 -999 34 2.3 100490 41
2010-11-26 08:38:25 51°19.827 2°50.489 -999 316 2.3 100500 41
2010-11-26 08:38:31 51°19.847 2°50.472 -999 316 2.3 100500 41
2010-11-26 08:38:35 51°19.86 2°50.46 -999 315 2.3 100500 41
2010-11-26 08:38:41 51°19.879 2°50.442 -999 316 2.3 100500 41
2010-11-26 08:38:46 51°19.895 2°50.427 -999 320 2.3 100500 41
2010-11-26 08:38:51 51°19.912 2°50.413 -999 316 2.3 100500 41
2010-11-26 08:38:55 51°19.925 2°50.401 -999 319 2.3 100500 41
2010-11-26 08:39:00 51°19.941 2°50.386 -999 316 2.3 100500 41
2010-11-26 08:39:06 51°19.96 2°50.368 -999 22 2.3 100500 41
2010-11-26 08:39:11 51°19.977 2°50.354 -999 319 2.3 100500 41
2010-11-26 08:39:15 51°19.989 2°50.342 -999 321 2.3 100490 41
2010-11-26 08:39:20 51°20.006 2°50.327 -999 320 2.3 100490 41
2010-11-26 08:39:25 51°20.022 2°50.312 -999 320 2.3 100500 41
2010-11-26 08:39:31 51°20.041 2°50.295 -999 318 2.3 100500 41
2010-11-26 08:39:35 51°20.054 2°50.283 -999 22 2.4 100490 40
2010-11-26 08:39:40 51°20.069 2°50.268 -999 316 2.4 100490 40
2010-11-26 08:39:45 51°20.085 2°50.253 -999 321 2.4 100500 41
2010-11-26 08:39:51 51°20.104 2°50.235 -999 321 2.4 100500 41
2010-11-26 08:39:55 51°20.117 2°50.223 -999 319 2.4 100490 41
2010-11-26 08:40:00 51°20.133 2°50.207 -999 319 2.4 100490 41
2010-11-26 08:40:06 51°20.152 2°50.189 -999 321 2.3 100490 40
2010-11-26 08:40:11 51°20.168 2°50.173 -999 324 2.3 100490 40
2010-11-26 08:40:15 51°20.181 2°50.161 -999 315 2.4 100510 41
2010-11-26 08:40:21 51°20.2 2°50.144 -999 316 2.4 100510 41
2010-11-26 08:40:25 51°20.213 2°50.132 -999 321 2.4 100500 41
2010-11-26 08:40:31 51°20.232 2°50.114 -999 322 2.4 100500 41
2010-11-26 08:40:35 51°20.245 2°50.102 -999 320 2.4 100510 41
2010-11-26 08:40:41 51°20.264 2°50.084 -999 321 2.4 100510 41
2010-11-26 08:40:45 51°20.277 2°50.073 -999 321 2.4 100500 41
2010-11-26 08:40:51 51°20.296 2°50.055 -999 318 2.4 100500 41
2010-11-26 08:40:55 51°20.309 2°50.043 -999 319 2.4 100500 41
2010-11-26 08:41:00 51°20.325 2°50.029 -999 34 2.4 100500 41
2010-11-26 08:41:06 51°20.344 2°50.01 -999 319 2.4 100500 41
2010-11-26 08:41:11 51°20.36 2°49.996 -999 318 2.4 100500 41
2010-11-26 08:41:15 51°20.372 2°49.984 -999 317 2.4 100500 41
2010-11-26 08:41:20 51°20.388 2°49.97 -999 318 2.4 100500 41
2010-11-26 08:41:25 51°20.404 2°49.955 -999 318 2.5 100500 41
2010-11-26 08:41:31 51°20.423 2°49.937 -999 315 2.5 100500 41
2010-11-26 08:41:35 51°20.436 2°49.925 -999 317 2.4 100500 41
2010-11-26 08:41:40 51°20.452 2°49.911 -999 34 2.4 100500 41
2010-11-26 08:41:45 51°20.468 2°49.896 -999 22 2.4 100500 41
2010-11-26 08:41:51 51°20.487 2°49.878 -999 320 2.4 100500 41
2010-11-26 08:41:55 51°20.5 2°49.866 -999 22 2.4 100500 41
2010-11-26 08:42:00 51°20.516 2°49.851 -999 327 2.4 100500 41
2010-11-26 08:42:05 51°20.532 2°49.837 -999 325 2.5 100500 41
2010-11-26 08:42:11 51°20.552 2°49.82 -999 325 2.5 100500 41
2010-11-26 08:42:15 51°20.565 2°49.809 -999 325 2.4 100500 40
2010-11-26 08:42:21 51°20.584 2°49.792 -999 318 2.4 100500 40
2010-11-26 08:42:25 51°20.597 2°49.781 -999 323 2.5 100500 41
2010-11-26 08:42:31 51°20.616 2°49.764 -999 321 2.5 100500 41
2010-11-26 08:42:35 51°20.629 2°49.753 -999 319 2.5 100500 41
2010-11-26 08:42:40 51°20.646 2°49.739 -999 322 2.5 100500 41
2010-11-26 08:42:46 51°20.665 2°49.722 -999 22 2.5 100510 40
2010-11-26 08:42:51 51°20.681 2°49.709 -999 321 2.5 100510 40
2010-11-26 08:42:55 51°20.694 2°49.698 -999 321 2.5 100500 41
2010-11-26 08:43:01 51°20.713 2°49.682 -999 319 2.5 100500 41
2010-11-26 08:43:06 51°20.729 2°49.668 -999 318 2.5 100500 41
2010-11-26 08:43:11 51°20.745 2°49.654 -999 325 2.5 100500 41
2010-11-26 08:43:15 51°20.759 2°49.643 -999 320 2.5 100500 41
2010-11-26 08:43:20 51°20.775 2°49.628 -999 329 2.5 100500 41
2010-11-26 08:43:26 51°20.794 2°49.612 -999 326 2.5 100500 41
2010-11-26 08:43:31 51°20.811 2°49.598 -999 330 2.5 100500 41
2010-11-26 08:43:35 51°20.824 2°49.587 -999 329 2.5 100490 41
2010-11-26 08:43:40 51°20.84 2°49.573 -999 328 2.5 100490 41
2010-11-26 08:43:45 51°20.856 2°49.559 -999 324 2.5 100500 41
2010-11-26 08:43:51 51°20.876 2°49.542 -999 325 2.5 100500 41
2010-11-26 08:43:55 51°20.889 2°49.53 -999 327 2.5 100500 41
2010-11-26 08:44:00 51°20.905 2°49.515 -999 325 2.5 100500 41
2010-11-26 08:44:05 51°20.921 2°49.5 -999 325 2.5 100500 41
2010-11-26 08:44:11 51°20.94 2°49.483 -999 324 2.5 100500 41
2010-11-26 08:44:15 51°20.952 2°49.471 -999 319 2.5 100490 41
2010-11-26 08:44:20 51°20.968 2°49.456 -999 324 2.5 100490 41
2010-11-26 08:44:25 51°20.984 2°49.442 -999 325 2.5 100500 41
2010-11-26 08:44:31 51°21.002 2°49.424 -999 325 2.5 100500 41
2010-11-26 08:44:35 51°21.015 2°49.412 -999 326 2.5 100500 41
2010-11-26 08:44:40 51°21.031 2°49.397 -999 325 2.5 100500 41
2010-11-26 08:44:45 51°21.046 2°49.382 -999 324 2.5 100490 41
2010-11-26 08:44:51 51°21.066 2°49.365 -999 325 2.5 100490 41
2010-11-26 08:44:55 51°21.078 2°49.353 -999 323 2.5 100500 40
2010-11-26 08:45:01 51°21.097 2°49.335 -999 330 2.5 100500 40
2010-11-26 08:45:05 51°21.11 2°49.324 -999 325 2.5 100500 41
2010-11-26 08:45:11 51°21.129 2°49.306 -999 321 2.5 100500 41
2010-11-26 08:45:15 51°21.141 2°49.295 -999 325 2.5 100510 41
2010-11-26 08:45:19 51°21.154 2°49.283 -999 326 2.5 100510 41
2010-11-26 08:45:26 51°21.176 2°49.262 -999 322 2.5 100500 40
2010-11-26 08:45:31 51°21.193 2°49.248 -999 315 2.5 100500 40
2010-11-26 08:45:35 51°21.205 2°49.236 -999 318 2.5 100500 41
2010-11-26 08:45:40 51°21.222 2°49.221 -999 33 2.5 100500 41
2010-11-26 08:45:46 51°21.241 2°49.204 -999 319 2.5 100490 41
2010-11-26 08:45:51 51°21.257 2°49.189 -999 319 2.5 100490 41
2010-11-26 08:45:55 51°21.27 2°49.177 -999 321 2.6 100490 42
2010-11-26 08:46:00 51°21.286 2°49.163 -999 319 2.6 100490 42
2010-11-26 08:46:05 51°21.303 2°49.148 -999 323 2.6 100500 41
2010-11-26 08:46:11 51°21.322 2°49.13 -999 317 2.6 100500 41
2010-11-26 08:46:15 51°21.335 2°49.119 -999 322 2.6 100500 41
2010-11-26 08:46:20 51°21.351 2°49.105 -999 319 2.6 100500 41
2010-11-26 08:46:25 51°21.367 2°49.09 -999 318 2.5 100490 41
2010-11-26 08:46:31 51°21.387 2°49.073 -999 322 2.5 100490 41
2010-11-26 08:46:35 51°21.4 2°49.061 -999 320 2.5 100490 41
2010-11-26 08:46:40 51°21.416 2°49.047 -999 317 2.5 100490 41
2010-11-26 08:46:45 51°21.433 2°49.032 -999 318 2.5 100490 41
2010-11-26 08:46:51 51°21.452 2°49.014 -999 318 2.5 100490 41
2010-11-26 08:46:55 51°21.465 2°49.002 -999 319 2.5 100500 41
2010-11-26 08:47:01 51°21.485 2°48.985 -999 318 2.5 100500 41
2010-11-26 08:47:05 51°21.498 2°48.974 -999 317 2.6 100500 41
2010-11-26 08:47:11 51°21.518 2°48.957 -999 320 2.6 100500 41
2010-11-26 08:47:15 51°21.531 2°48.945 -999 321 2.6 100500 41
2010-11-26 08:47:20 51°21.547 2°48.93 -999 321 2.6 100500 41
2010-11-26 08:47:26 51°21.567 2°48.913 -999 323 2.5 100490 41
2010-11-26 08:47:31 51°21.583 2°48.899 -999 322 2.5 100490 41
2010-11-26 08:47:35 51°21.596 2°48.887 -999 321 2.5 100500 40
2010-11-26 08:47:40 51°21.613 2°48.873 -999 320 2.5 100500 40
2010-11-26 08:47:46 51°21.632 2°48.856 -999 325 2.5 100500 41
2010-11-26 08:47:51 51°21.649 2°48.841 -999 326 2.5 100500 41
2010-11-26 08:47:55 51°21.662 2°48.83 -999 326 2.5 100490 41
2010-11-26 08:48:00 51°21.678 2°48.815 -999 324 2.5 100490 41
2010-11-26 08:48:06 51°21.698 2°48.799 -999 322 2.5 100500 40
2010-11-26 08:48:11 51°21.714 2°48.785 -999 325 2.5 100500 40
2010-11-26 08:48:15 51°21.727 2°48.774 -999 318 2.5 100490 41
2010-11-26 08:48:20 51°21.743 2°48.759 -999 318 2.5 100490 41
2010-11-26 08:48:25 51°21.76 2°48.745 -999 319 2.6 100500 41
2010-11-26 08:48:31 51°21.78 2°48.728 -999 334 2.6 100500 41
2010-11-26 08:48:35 51°21.793 2°48.716 -999 284 2.6 100490 41
2010-11-26 08:48:41 51°21.813 2°48.699 -999 326 2.6 100490 41
2010-11-26 08:48:45 51°21.826 2°48.687 -999 284 2.6 100480 41
2010-11-26 08:48:51 51°21.846 2°48.669 -999 327 2.6 100480 41
2010-11-26 08:48:55 51°21.859 2°48.658 -999 330 2.6 100500 41
2010-11-26 08:49:00 51°21.875 2°48.643 -999 331 2.6 100500 41
2010-11-26 08:49:05 51°21.891 2°48.63 -999 284 2.6 100490 41
2010-11-26 08:49:11 51°21.911 2°48.612 -999 326 2.6 100490 41
2010-11-26 08:49:15 51°21.925 2°48.601 -999 332 2.6 100500 41
2010-11-26 08:49:21 51°21.944 2°48.584 -999 326 2.6 100500 41
2010-11-26 08:49:25 51°21.958 2°48.572 -999 284 2.6 100490 41
2010-11-26 08:49:31 51°21.977 2°48.555 -999 327 2.6 100490 41
2010-11-26 08:49:35 51°21.99 2°48.544 -999 284 2.6 100500 41
2010-11-26 08:49:41 51°22.01 2°48.526 -999 326 2.6 100500 41
2010-11-26 08:49:46 51°22.026 2°48.512 -999 284 2.6 100490 41
2010-11-26 08:49:51 51°22.043 2°48.498 -999 323 2.6 100490 41
2010-11-26 08:49:55 51°22.056 2°48.486 -999 324 2.6 100490 41
2010-11-26 08:50:00 51°22.073 2°48.472 -999 327 2.6 100490 41
2010-11-26 08:50:06 51°22.092 2°48.454 -999 284 2.6 100490 41
2010-11-26 08:50:11 51°22.109 2°48.44 -999 320 2.6 100490 41
2010-11-26 08:50:15 51°22.122 2°48.428 -999 284 2.7 100490 40
2010-11-26 08:50:21 51°22.142 2°48.411 -999 327 2.7 100490 40
2010-11-26 08:50:26 51°22.158 2°48.396 -999 325 2.6 100490 41
2010-11-26 08:50:31 51°22.175 2°48.382 -999 325 2.6 100490 41
2010-11-26 08:50:35 51°22.188 2°48.371 -999 284 2.7 100500 41
2010-11-26 08:50:40 51°22.204 2°48.356 -999 328 2.7 100500 41
2010-11-26 08:50:46 51°22.223 2°48.338 -999 322 2.7 100490 41
2010-11-26 08:50:51 51°22.239 2°48.323 -999 322 2.7 100490 41
2010-11-26 08:50:55 51°22.252 2°48.312 -999 318 2.7 100490 41
2010-11-26 08:51:00 51°22.268 2°48.297 -999 320 2.7 100490 41
2010-11-26 08:51:06 51°22.287 2°48.279 -999 320 2.7 100490 41
2010-11-26 08:51:11 51°22.303 2°48.264 -999 319 2.7 100490 41
2010-11-26 08:51:15 51°22.316 2°48.253 -999 284 2.7 100490 41
2010-11-26 08:51:21 51°22.335 2°48.235 -999 323 2.7 100490 41
2010-11-26 08:51:26 51°22.351 2°48.22 -999 319 2.7 100480 41
2010-11-26 08:51:31 51°22.367 2°48.206 -999 325 2.7 100480 41
2010-11-26 08:51:35 51°22.38 2°48.194 -999 284 2.7 100490 41
2010-11-26 08:51:40 51°22.395 2°48.179 -999 33 2.7 100490 41
2010-11-26 08:51:46 51°22.414 2°48.162 -999 284 2.8 100490 41
2010-11-26 08:51:51 51°22.429 2°48.147 -999 318 2.8 100490 41
2010-11-26 08:51:55 51°22.442 2°48.135 -999 323 2.7 100480 41
2010-11-26 08:52:00 51°22.458 2°48.121 -999 34 2.7 100480 41
2010-11-26 08:52:06 51°22.477 2°48.104 -999 284 2.7 100480 41
2010-11-26 08:52:11 51°22.492 2°48.089 -999 317 2.7 100480 41
2010-11-26 08:52:15 51°22.505 2°48.078 -999 284 2.8 100490 41
2010-11-26 08:52:20 51°22.521 2°48.063 -999 321 2.8 100490 41
2010-11-26 08:52:26 51°22.54 2°48.046 -999 284 2.7 100490 41
2010-11-26 08:52:31 51°22.556 2°48.032 -999 316 2.7 100490 41
2010-11-26 08:52:35 51°22.568 2°48.02 -999 284 2.8 100490 41
2010-11-26 08:52:40 51°22.584 2°48.006 -999 323 2.8 100490 41
2010-11-26 08:52:46 51°22.602 2°47.988 -999 318 2.8 100490 41
2010-11-26 08:52:51 51°22.618 2°47.975 -999 321 2.8 100490 41
2010-11-26 08:52:55 51°22.631 2°47.963 -999 318 2.8 100480 40
2010-11-26 08:53:00 51°22.646 2°47.949 -999 315 2.8 100480 40
2010-11-26 08:53:06 51°22.665 2°47.932 -999 22 2.8 100490 41
2010-11-26 08:53:11 51°22.68 2°47.917 -999 33 2.8 100490 41
2010-11-26 08:53:15 51°22.693 2°47.907 -999 284 2.8 100490 41
2010-11-26 08:53:20 51°22.709 2°47.892 -999 33 2.8 100490 41
2010-11-26 08:53:26 51°22.728 2°47.877 -999 322 2.8 100490 41
2010-11-26 08:53:31 51°22.743 2°47.862 -999 34 2.8 100490 41
2010-11-26 08:53:35 51°22.756 2°47.852 -999 284 2.8 100480 41
2010-11-26 08:53:41 51°22.775 2°47.834 -999 34 2.8 100480 41
2010-11-26 08:53:46 51°22.791 2°47.822 -999 315 2.8 100490 41
2010-11-26 08:53:51 51°22.807 2°47.807 -999 33 2.8 100490 41
2010-11-26 08:53:55 51°22.82 2°47.798 -999 22 2.8 100480 41
2010-11-26 08:54:01 51°22.839 2°47.78 -999 33 2.8 100480 41
2010-11-26 08:54:06 51°22.855 2°47.769 -999 284 2.8 100490 41
2010-11-26 08:54:11 51°22.87 2°47.754 -999 34 2.8 100490 41
2010-11-26 08:54:15 51°22.883 2°47.744 -999 284 2.8 100480 41
2010-11-26 08:54:20 51°22.899 2°47.731 -999 34 2.8 100480 41
2010-11-26 08:54:26 51°22.919 2°47.715 -999 284 2.8 100480 41
2010-11-26 08:54:31 51°22.934 2°47.702 -999 34 2.8 100480 41
2010-11-26 08:54:35 51°22.947 2°47.692 -999 284 2.9 100480 42
2010-11-26 08:54:40 51°22.963 2°47.679 -999 34 2.9 100480 42
2010-11-26 08:54:46 51°22.983 2°47.664 -999 22 2.9 100480 42
2010-11-26 08:54:51 51°22.999 2°47.651 -999 317 2.9 100480 42
2010-11-26 08:54:55 51°23.012 2°47.64 -999 316 2.9 100490 42
2010-11-26 08:55:00 51°23.028 2°47.627 -999 319 2.9 100490 42
2010-11-26 08:55:05 51°23.045 2°47.614 -999 284 2.9 100480 41
2010-11-26 08:55:11 51°23.064 2°47.598 -999 318 2.9 100480 41
2010-11-26 08:55:15 51°23.077 2°47.588 -999 284 2.9 100480 42
2010-11-26 08:55:21 51°23.097 2°47.571 -999 318 2.9 100480 42
2010-11-26 08:55:25 51°23.11 2°47.561 -999 284 2.9 100480 42
2010-11-26 08:55:31 51°23.129 2°47.545 -999 317 2.9 100480 42
2010-11-26 08:55:35 51°23.142 2°47.534 -999 284 2.9 100480 40
2010-11-26 08:55:41 51°23.161 2°47.519 -999 34 2.9 100480 40
2010-11-26 08:55:46 51°23.177 2°47.505 -999 284 2.9 100470 41
2010-11-26 08:55:51 51°23.193 2°47.493 -999 319 2.9 100470 41
2010-11-26 08:55:55 51°23.206 2°47.482 -999 315 2.9 100480 42
2010-11-26 08:56:00 51°23.222 2°47.469 -999 34 2.9 100480 42
2010-11-26 08:56:06 51°23.242 2°47.453 -999 283 2.9 100480 41
2010-11-26 08:56:11 51°23.257 2°47.441 -999 34 2.9 100480 41
2010-11-26 08:56:15 51°23.27 2°47.43 -999 284 2.9 100480 42
2010-11-26 08:56:21 51°23.289 2°47.415 -999 34 2.9 100480 42
2010-11-26 08:56:26 51°23.305 2°47.401 -999 284 2.9 100470 41
2010-11-26 08:56:31 51°23.322 2°47.388 -999 34 2.9 100470 41
2010-11-26 08:56:35 51°23.335 2°47.378 -999 284 2.9 100490 42
2010-11-26 08:56:40 51°23.35 2°47.363 -999 321 2.9 100490 42
2010-11-26 08:56:46 51°23.369 2°47.348 -999 284 2.9 100480 42
2010-11-26 08:56:51 51°23.385 2°47.334 -999 320 2.9 100480 42
2010-11-26 08:56:55 51°23.398 2°47.323 -999 318 3 100480 42
2010-11-26 08:57:00 51°23.414 2°47.31 -999 318 3 100480 42
2010-11-26 08:57:06 51°23.433 2°47.294 -999 284 3 100480 41
2010-11-26 08:57:11 51°23.449 2°47.281 -999 316 3 100480 41
2010-11-26 08:57:15 51°23.462 2°47.271 -999 284 3 100470 41
2010-11-26 08:57:20 51°23.478 2°47.256 -999 327 3 100470 41
2010-11-26 08:57:26 51°23.497 2°47.242 -999 322 3 100480 41
2010-11-26 08:57:31 51°23.513 2°47.228 -999 324 3 100480 41
2010-11-26 08:57:35 51°23.526 2°47.218 -999 284 3 100480 41
2010-11-26 08:57:40 51°23.542 2°47.205 -999 324 3 100480 41
2010-11-26 08:57:46 51°23.561 2°47.188 -999 323 3 100490 41
2010-11-26 08:57:51 51°23.578 2°47.176 -999 323 3 100490 41
2010-11-26 08:57:55 51°23.591 2°47.165 -999 318 3 100470 42
2010-11-26 08:58:00 51°23.607 2°47.152 -999 325 3 100470 42
2010-11-26 08:58:06 51°23.626 2°47.136 -999 322 3 100480 42
2010-11-26 08:58:11 51°23.642 2°47.121 -999 319 3 100480 42
2010-11-26 08:58:15 51°23.655 2°47.11 -999 284 3 100480 40
2010-11-26 08:58:20 51°23.67 2°47.096 -999 324 3 100480 40
2010-11-26 08:58:26 51°23.688 2°47.079 -999 284 3 100480 41
2010-11-26 08:58:31 51°23.704 2°47.063 -999 322 3 100480 41
2010-11-26 08:58:35 51°23.716 2°47.051 -999 284 3 100470 42
2010-11-26 08:58:41 51°23.735 2°47.033 -999 326 3 100470 42
2010-11-26 08:58:46 51°23.751 2°47.018 -999 284 3 100480 42
2010-11-26 08:58:51 51°23.766 2°47.003 -999 322 3 100480 42
2010-11-26 08:58:55 51°23.779 2°46.991 -999 326 3 100480 41
2010-11-26 08:59:01 51°23.798 2°46.974 -999 321 3 100480 41
2010-11-26 08:59:06 51°23.813 2°46.959 -999 284 3 100480 41
2010-11-26 08:59:11 51°23.829 2°46.944 -999 321 3 100480 41
2010-11-26 08:59:15 51°23.842 2°46.932 -999 284 3 100480 41
2010-11-26 08:59:20 51°23.858 2°46.917 -999 317 3 100480 41
2010-11-26 08:59:26 51°23.877 2°46.901 -999 284 2.9 100480 41
2010-11-26 08:59:31 51°23.893 2°46.887 -999 318 2.9 100480 41
2010-11-26 08:59:35 51°23.906 2°46.875 -999 284 2.9 100480 41
2010-11-26 08:59:40 51°23.922 2°46.861 -999 34 2.9 100480 41
2010-11-26 08:59:46 51°23.941 2°46.844 -999 22 3 100470 41
2010-11-26 08:59:51 51°23.957 2°46.83 -999 316 3 100470 41
2010-11-26 08:59:55 51°23.97 2°46.819 -999 316 3 100470 41
2010-11-26 09:00:00 51°23.986 2°46.805 -999 322 3 100470 41
2010-11-26 09:00:06 51°24.005 2°46.788 -999 322 3 100480 41
2010-11-26 09:00:11 51°24.021 2°46.773 -999 317 3 100480 41
2010-11-26 09:00:15 51°24.034 2°46.763 -999 284 3 100480 41
2010-11-26 09:00:20 51°24.05 2°46.748 -999 321 3 100480 41
2010-11-26 09:00:26 51°24.07 2°46.732 -999 319 3 100490 41
2010-11-26 09:00:31 51°24.086 2°46.717 -999 317 3 100490 41
2010-11-26 09:00:35 51°24.099 2°46.707 -999 284 3 100480 41
2010-11-26 09:00:40 51°24.115 2°46.692 -999 318 3 100480 41
2010-11-26 09:00:46 51°24.134 2°46.676 -999 284 3 100480 41
2010-11-26 09:00:51 51°24.15 2°46.661 -999 322 3 100480 41
2010-11-26 09:00:55 51°24.163 2°46.65 -999 323 3 100480 40
2010-11-26 09:01:00 51°24.179 2°46.635 -999 319 3 100480 40
2010-11-26 09:01:06 51°24.199 2°46.618 -999 284 3 100480 41
2010-11-26 09:01:11 51°24.215 2°46.604 -999 321 3 100480 41
2010-11-26 09:01:15 51°24.227 2°46.592 -999 284 3 100480 41
2010-11-26 09:01:21 51°24.247 2°46.576 -999 322 3 100480 41
2010-11-26 09:01:26 51°24.263 2°46.562 -999 284 3 100490 41
2010-11-26 09:01:31 51°24.279 2°46.548 -999 322 3 100490 41
2010-11-26 09:01:35 51°24.291 2°46.537 -999 284 3 100470 41
2010-11-26 09:01:41 51°24.311 2°46.52 -999 321 3 100470 41
2010-11-26 09:01:46 51°24.327 2°46.506 -999 284 3 100470 41
2010-11-26 09:01:51 51°24.343 2°46.492 -999 324 3 100470 41
2010-11-26 09:01:55 51°24.356 2°46.481 -999 324 2.9 100470 41
2010-11-26 09:02:00 51°24.371 2°46.467 -999 325 2.9 100470 41
2010-11-26 09:02:06 51°24.391 2°46.451 -999 284 2.9 100480 41
2010-11-26 09:02:11 51°24.407 2°46.437 -999 327 2.9 100480 41
2010-11-26 09:02:15 51°24.42 2°46.426 -999 284 2.9 100480 41
2010-11-26 09:02:20 51°24.436 2°46.412 -999 326 2.9 100480 41
2010-11-26 09:02:26 51°24.455 2°46.396 -999 324 2.9 100480 41
2010-11-26 09:02:31 51°24.471 2°46.382 -999 323 2.9 100480 41
2010-11-26 09:02:35 51°24.484 2°46.371 -999 284 2.8 100470 41
2010-11-26 09:02:40 51°24.499 2°46.356 -999 322 2.8 100470 41
2010-11-26 09:02:46 51°24.518 2°46.339 -999 284 2.8 100480 41
2010-11-26 09:02:51 51°24.534 2°46.325 -999 319 2.8 100480 41
2010-11-26 09:02:55 51°24.547 2°46.314 -999 317 2.8 100480 41
2010-11-26 09:03:00 51°24.563 2°46.3 -999 322 2.8 100480 41
2010-11-26 09:03:06 51°24.582 2°46.284 -999 284 2.8 100490 41
2010-11-26 09:03:11 51°24.598 2°46.269 -999 324 2.8 100490 41
2010-11-26 09:03:15 51°24.611 2°46.259 -999 284 2.8 100480 41
2010-11-26 09:03:20 51°24.627 2°46.245 -999 323 2.8 100480 41
2010-11-26 09:03:26 51°24.647 2°46.229 -999 284 2.9 100470 41
2010-11-26 09:03:31 51°24.663 2°46.215 -999 318 2.9 100470 41
2010-11-26 09:03:35 51°24.676 2°46.204 -999 284 2.9 100480 40
2010-11-26 09:03:41 51°24.695 2°46.187 -999 322 2.9 100480 40
2010-11-26 09:03:46 51°24.712 2°46.173 -999 284 2.8 100480 41
2010-11-26 09:03:51 51°24.728 2°46.159 -999 319 2.8 100480 41
2010-11-26 09:03:55 51°24.741 2°46.149 -999 324 2.8 100480 41
2010-11-26 09:04:00 51°24.757 2°46.135 -999 320 2.8 100480 41
2010-11-26 09:04:06 51°24.776 2°46.118 -999 322 2.8 100480 41
2010-11-26 09:04:11 51°24.793 2°46.104 -999 325 2.8 100480 41
2010-11-26 09:04:15 51°24.806 2°46.093 -999 284 2.8 100480 41
2010-11-26 09:04:20 51°24.822 2°46.079 -999 328 2.8 100480 41
2010-11-26 09:04:26 51°24.841 2°46.063 -999 332 2.8 100470 41
2010-11-26 09:04:31 51°24.857 2°46.048 -999 322 2.8 100470 41
2010-11-26 09:04:35 51°24.87 2°46.037 -999 284 2.8 100490 41
2010-11-26 09:04:40 51°24.886 2°46.022 -999 328 2.8 100490 41
2010-11-26 09:04:46 51°24.906 2°46.006 -999 325 2.8 100480 41
2010-11-26 09:04:51 51°24.921 2°45.992 -999 327 2.8 100480 41
2010-11-26 09:04:55 51°24.934 2°45.98 -999 322 2.8 100480 41
2010-11-26 09:05:00 51°24.95 2°45.967 -999 322 2.8 100480 41
2010-11-26 09:05:06 51°24.969 2°45.949 -999 284 2.8 100480 41
2010-11-26 09:05:11 51°24.985 2°45.936 -999 321 2.8 100480 41
2010-11-26 09:05:15 51°24.998 2°45.923 -999 284 2.8 100480 41
2010-11-26 09:05:21 51°25.018 2°45.908 -999 320 2.8 100480 41
2010-11-26 09:05:26 51°25.033 2°45.892 -999 284 2.8 100480 41
2010-11-26 09:05:31 51°25.05 2°45.88 -999 322 2.8 100480 41
2010-11-26 09:05:35 51°25.062 2°45.867 -999 284 2.8 100480 41
2010-11-26 09:05:40 51°25.079 2°45.854 -999 320 2.8 100480 41
2010-11-26 09:05:46 51°25.097 2°45.837 -999 284 2.8 100480 41
2010-11-26 09:05:51 51°25.113 2°45.824 -999 321 2.8 100480 41
2010-11-26 09:05:55 51°25.126 2°45.812 -999 323 2.8 100480 41
2010-11-26 09:06:00 51°25.143 2°45.798 -999 320 2.8 100480 41
2010-11-26 09:06:06 51°25.162 2°45.782 -999 284 2.8 100480 41
2010-11-26 09:06:11 51°25.178 2°45.767 -999 320 2.8 100480 41
2010-11-26 09:06:15 51°25.191 2°45.757 -999 284 2.8 100480 40
2010-11-26 09:06:20 51°25.206 2°45.743 -999 324 2.8 100480 40
2010-11-26 09:06:26 51°25.226 2°45.727 -999 324 2.8 100470 41
2010-11-26 09:06:31 51°25.242 2°45.712 -999 325 2.8 100470 41
2010-11-26 09:06:35 51°25.255 2°45.702 -999 284 2.8 100470 41
2010-11-26 09:06:41 51°25.274 2°45.685 -999 323 2.8 100470 41
2010-11-26 09:06:46 51°25.29 2°45.672 -999 284 2.8 100470 41
2010-11-26 09:06:51 51°25.306 2°45.657 -999 323 2.8 100470 41
2010-11-26 09:06:55 51°25.318 2°45.647 -999 321 2.8 100470 41
2010-11-26 09:07:00 51°25.334 2°45.633 -999 322 2.8 100470 41
2010-11-26 09:07:06 51°25.354 2°45.617 -999 323 2.8 100480 41
2010-11-26 09:07:11 51°25.369 2°45.603 -999 324 2.8 100480 41
2010-11-26 09:07:15 51°25.382 2°45.592 -999 284 2.8 100470 41
2010-11-26 09:07:20 51°25.398 2°45.578 -999 325 2.8 100470 41
2010-11-26 09:07:26 51°25.417 2°45.561 -999 284 2.8 100470 41
2010-11-26 09:07:31 51°25.434 2°45.549 -999 325 2.8 100470 41
2010-11-26 09:07:35 51°25.446 2°45.537 -999 284 2.8 100480 41
2010-11-26 09:07:41 51°25.466 2°45.521 -999 325 2.8 100480 41
2010-11-26 09:07:46 51°25.482 2°45.507 -999 284 2.8 100480 41
2010-11-26 09:07:51 51°25.497 2°45.493 -999 325 2.8 100480 41
2010-11-26 09:07:55 51°25.511 2°45.482 -999 327 2.8 100480 41
2010-11-26 09:08:00 51°25.527 2°45.468 -999 326 2.8 100480 41
2010-11-26 09:08:06 51°25.546 2°45.453 -999 284 2.8 100480 41
2010-11-26 09:08:11 51°25.562 2°45.438 -999 329 2.8 100480 41
2010-11-26 09:08:15 51°25.575 2°45.429 -999 284 2.8 100480 41
2010-11-26 09:08:21 51°25.594 2°45.412 -999 327 2.8 100480 41
2010-11-26 09:08:26 51°25.61 2°45.399 -999 284 2.8 100480 41
2010-11-26 09:08:31 51°25.626 2°45.385 -999 328 2.8 100480 41
2010-11-26 09:08:35 51°25.638 2°45.375 -999 284 2.8 100480 41
2010-11-26 09:08:40 51°25.654 2°45.362 -999 327 2.8 100480 41
2010-11-26 09:08:46 51°25.673 2°45.346 -999 329 2.7 100490 41
2010-11-26 09:08:51 51°25.689 2°45.333 -999 325 2.7 100490 41
2010-11-26 09:08:55 51°25.702 2°45.322 -999 326 2.7 100470 39
2010-11-26 09:09:00 51°25.718 2°45.309 -999 327 2.7 100470 39
2010-11-26 09:09:06 51°25.737 2°45.292 -999 324 2.7 100480 40
2010-11-26 09:09:11 51°25.753 2°45.279 -999 326 2.7 100480 40
2010-11-26 09:09:15 51°25.766 2°45.269 -999 284 2.8 100480 41
2010-11-26 09:09:20 51°25.781 2°45.256 -999 328 2.8 100480 41
2010-11-26 09:09:26 51°25.8 2°45.239 -999 324 2.7 100470 41
2010-11-26 09:09:31 51°25.816 2°45.227 -999 330 2.7 100470 41
2010-11-26 09:09:35 51°25.829 2°45.216 -999 284 2.7 100480 40
2010-11-26 09:09:40 51°25.845 2°45.202 -999 328 2.7 100480 40
2010-11-26 09:09:46 51°25.864 2°45.186 -999 284 2.7 100490 40
2010-11-26 09:09:51 51°25.88 2°45.172 -999 329 2.7 100490 40
2010-11-26 09:09:55 51°25.893 2°45.162 -999 327 2.7 100480 41
2010-11-26 09:10:00 51°25.908 2°45.148 -999 325 2.7 100480 41
2010-11-26 09:10:06 51°25.928 2°45.132 -999 284 2.7 100480 40
2010-11-26 09:10:11 51°25.944 2°45.119 -999 324 2.7 100480 40
2010-11-26 09:10:15 51°25.956 2°45.107 -999 284 2.7 100470 41
2010-11-26 09:10:20 51°25.972 2°45.094 -999 328 2.7 100470 41
2010-11-26 09:10:26 51°25.991 2°45.078 -999 284 2.7 100480 41
2010-11-26 09:10:31 51°26.008 2°45.065 -999 328 2.7 100480 41
2010-11-26 09:10:35 51°26.02 2°45.055 -999 284 2.7 100480 41
2010-11-26 09:10:41 51°26.04 2°45.039 -999 329 2.7 100480 41
2010-11-26 09:10:45 51°26.052 2°45.029 -999 284 2.7 100490 41
2010-11-26 09:10:51 51°26.072 2°45.012 -999 332 2.7 100490 41
2010-11-26 09:10:55 51°26.084 2°45.001 -999 323 2.7 100480 41
2010-11-26 09:11:00 51°26.101 2°44.988 -999 326 2.7 100480 41
2010-11-26 09:11:06 51°26.12 2°44.971 -999 323 2.7 100470 41
2010-11-26 09:11:11 51°26.136 2°44.958 -999 331 2.7 100470 41
2010-11-26 09:11:15 51°26.149 2°44.946 -999 284 2.8 100480 41
2010-11-26 09:11:20 51°26.165 2°44.933 -999 327 2.8 100480 41
2010-11-26 09:11:26 51°26.184 2°44.916 -999 326 2.7 100480 40
2010-11-26 09:11:31 51°26.2 2°44.903 -999 330 2.7 100480 40
2010-11-26 09:11:35 51°26.213 2°44.892 -999 284 2.8 100490 40
2010-11-26 09:11:41 51°26.233 2°44.876 -999 331 2.8 100490 40
2010-11-26 09:11:46 51°26.249 2°44.862 -999 329 2.8 100490 41
2010-11-26 09:11:51 51°26.265 2°44.848 -999 329 2.8 100490 41
2010-11-26 09:11:55 51°26.278 2°44.837 -999 330 2.8 100480 41
2010-11-26 09:12:00 51°26.294 2°44.823 -999 331 2.8 100480 41
2010-11-26 09:12:06 51°26.313 2°44.806 -999 284 2.8 100480 41
2010-11-26 09:12:11 51°26.329 2°44.793 -999 329 2.8 100480 41
2010-11-26 09:12:15 51°26.342 2°44.782 -999 284 2.8 100480 41
2010-11-26 09:12:21 51°26.361 2°44.765 -999 328 2.8 100480 41
2010-11-26 09:12:26 51°26.377 2°44.752 -999 284 2.8 100480 41
2010-11-26 09:12:31 51°26.393 2°44.738 -999 330 2.8 100480 41
2010-11-26 09:12:35 51°26.406 2°44.727 -999 284 2.8 100480 41
2010-11-26 09:12:40 51°26.422 2°44.714 -999 329 2.8 100480 41
2010-11-26 09:12:46 51°26.441 2°44.698 -999 284 2.8 100480 41
2010-11-26 09:12:51 51°26.457 2°44.684 -999 331 2.8 100480 41
2010-11-26 09:12:55 51°26.47 2°44.674 -999 328 2.8 100480 41
2010-11-26 09:13:00 51°26.486 2°44.664 -999 333 2.8 100480 41
2010-11-26 09:13:06 51°26.506 2°44.654 -999 332 2.8 100480 41
2010-11-26 09:13:11 51°26.523 2°44.646 -999 334 2.8 100480 41
2010-11-26 09:13:15 51°26.537 2°44.644 -999 284 2.8 100480 41
2010-11-26 09:13:20 51°26.554 2°44.644 -999 331 2.8 100480 41
2010-11-26 09:13:26 51°26.574 2°44.648 -999 329 2.8 100480 41
2010-11-26 09:13:31 51°26.589 2°44.656 -999 332 2.8 100480 41
2010-11-26 09:13:35 51°26.601 2°44.666 -999 284 2.8 100470 41
2010-11-26 09:13:40 51°26.615 2°44.678 -999 336 2.8 100470 41
2010-11-26 09:13:46 51°26.63 2°44.697 -999 334 2.8 100480 41
2010-11-26 09:13:51 51°26.644 2°44.71 -999 333 2.8 100480 41
2010-11-26 09:13:55 51°26.655 2°44.723 -999 333 2.8 100480 41
2010-11-26 09:14:00 51°26.667 2°44.741 -999 332 2.8 100480 41
2010-11-26 09:14:06 51°26.683 2°44.76 -999 335 2.8 100480 41
2010-11-26 09:14:11 51°26.695 2°44.779 -999 335 2.8 100480 41
2010-11-26 09:14:15 51°26.706 2°44.792 -999 284 2.8 100480 40
2010-11-26 09:14:21 51°26.719 2°44.815 -999 333 2.8 100480 40
2010-11-26 09:14:26 51°26.732 2°44.833 -999 284 2.8 100480 41
2010-11-26 09:14:31 51°26.742 2°44.853 -999 337 2.8 100480 41
2010-11-26 09:14:35 51°26.751 2°44.869 -999 284 2.8 100480 41
2010-11-26 09:14:41 51°26.764 2°44.893 -999 334 2.8 100480 41
2010-11-26 09:14:46 51°26.774 2°44.916 -999 284 2.8 100480 41
2010-11-26 09:14:51 51°26.785 2°44.936 -999 337 2.8 100480 41
2010-11-26 09:14:55 51°26.794 2°44.952 -999 332 2.8 100480 41
2010-11-26 09:15:00 51°26.803 2°44.975 -999 332 2.8 100480 41
2010-11-26 09:15:06 51°26.815 2°45 -999 284 2.8 100490 41
2010-11-26 09:15:11 51°26.823 2°45.023 -999 339 2.8 100490 41
2010-11-26 09:15:15 51°26.83 2°45.041 -999 284 2.8 100470 41
2010-11-26 09:15:21 51°26.84 2°45.068 -999 336 2.8 100470 41
2010-11-26 09:15:25 51°26.847 2°45.086 -999 284 2.8 100480 40
2010-11-26 09:15:31 51°26.856 2°45.114 -999 330 2.8 100480 40
2010-11-26 09:15:35 51°26.864 2°45.132 -999 284 2.8 100480 41
2010-11-26 09:15:40 51°26.871 2°45.156 -999 332 2.8 100480 41
2010-11-26 09:15:46 51°26.883 2°45.182 -999 332 2.8 100480 41
2010-11-26 09:15:51 51°26.891 2°45.206 -999 333 2.8 100480 41
2010-11-26 09:15:55 51°26.9 2°45.222 -999 327 2.8 100480 41
2010-11-26 09:16:00 51°26.907 2°45.247 -999 336 2.8 100480 41
2010-11-26 09:16:06 51°26.919 2°45.273 -999 333 2.8 100470 41
2010-11-26 09:16:11 51°26.926 2°45.298 -999 337 2.8 100470 41
2010-11-26 09:16:15 51°26.934 2°45.315 -999 284 2.8 100490 41
2010-11-26 09:16:20 51°26.943 2°45.337 -999 338 2.8 100490 41
2010-11-26 09:16:26 51°26.955 2°45.363 -999 284 2.8 100480 41
2010-11-26 09:16:31 51°26.962 2°45.387 -999 338 2.8 100480 41
2010-11-26 09:16:35 51°26.969 2°45.405 -999 284 2.8 100490 40
2010-11-26 09:16:41 51°26.979 2°45.434 -999 338 2.8 100490 40
2010-11-26 09:16:46 51°26.988 2°45.456 -999 284 2.8 100490 41
2010-11-26 09:16:51 51°26.996 2°45.48 -999 339 2.8 100490 41
2010-11-26 09:16:55 51°27.002 2°45.499 -999 339 2.8 100480 39
2010-11-26 09:17:00 51°27.01 2°45.523 -999 340 2.8 100480 39
2010-11-26 09:17:06 51°27.02 2°45.551 -999 284 2.8 100490 40
2010-11-26 09:17:11 51°27.026 2°45.576 -999 342 2.8 100490 40
2010-11-26 09:17:15 51°27.033 2°45.594 -999 284 2.8 100480 41
2010-11-26 09:17:20 51°27.042 2°45.618 -999 351 2.8 100480 41
2010-11-26 09:17:26 51°27.051 2°45.646 -999 284 2.8 100480 41
2010-11-26 09:17:31 51°27.059 2°45.67 -999 349 2.8 100480 41
2010-11-26 09:17:35 51°27.066 2°45.689 -999 284 2.8 100480 41
2010-11-26 09:17:40 51°27.075 2°45.712 -999 350 2.8 100480 41
2010-11-26 09:17:46 51°27.085 2°45.74 -999 348 2.8 100480 41
2010-11-26 09:17:51 51°27.093 2°45.763 -999 341 2.8 100480 41
2010-11-26 09:17:55 51°27.099 2°45.783 -999 345 2.8 100480 40
2010-11-26 09:18:00 51°27.109 2°45.804 -999 342 2.8 100480 40
2010-11-26 09:18:06 51°27.118 2°45.833 -999 340 2.9 100480 41
2010-11-26 09:18:11 51°27.127 2°45.856 -999 340 2.9 100480 41
2010-11-26 09:18:15 51°27.134 2°45.875 -999 284 2.9 100480 41
2010-11-26 09:18:20 51°27.143 2°45.898 -999 328 2.9 100480 41
2010-11-26 09:18:26 51°27.153 2°45.926 -999 284 2.9 100480 41
2010-11-26 09:18:31 51°27.162 2°45.949 -999 333 2.9 100480 41
2010-11-26 09:18:35 51°27.17 2°45.966 -999 284 2.9 100470 41
2010-11-26 09:18:41 51°27.179 2°45.996 -999 333 2.9 100470 41
2010-11-26 09:18:46 51°27.189 2°46.017 -999 284 2.9 100470 41
2010-11-26 09:18:51 51°27.196 2°46.042 -999 331 2.9 100470 41
2010-11-26 09:18:55 51°27.205 2°46.059 -999 325 2.9 100470 41
2010-11-26 09:19:01 51°27.215 2°46.088 -999 334 2.9 100470 41
2010-11-26 09:19:06 51°27.224 2°46.11 -999 284 2.9 100480 41
2010-11-26 09:19:11 51°27.232 2°46.134 -999 334 2.9 100480 41
2010-11-26 09:19:15 51°27.239 2°46.153 -999 284 2.9 100480 41
2010-11-26 09:19:20 51°27.249 2°46.176 -999 344 2.9 100480 41
2010-11-26 09:19:26 51°27.259 2°46.204 -999 284 2.9 100470 41
2010-11-26 09:19:31 51°27.268 2°46.227 -999 334 2.9 100470 41
2010-11-26 09:19:35 51°27.274 2°46.247 -999 284 2.9 100480 40
2010-11-26 09:19:40 51°27.284 2°46.269 -999 345 2.9 100480 40
2010-11-26 09:19:46 51°27.293 2°46.298 -999 284 2.9 100480 41
2010-11-26 09:19:51 51°27.303 2°46.32 -999 344 2.9 100480 41
2010-11-26 09:19:55 51°27.31 2°46.339 -999 348 2.9 100470 40
2010-11-26 09:20:00 51°27.319 2°46.362 -999 345 2.9 100470 40
2010-11-26 09:20:05 51°27.327 2°46.386 -999 347 2.9 100470 41
2010-11-26 09:20:11 51°27.339 2°46.412 -999 352 2.9 100470 41
2010-11-26 09:20:15 51°27.345 2°46.431 -999 353 2.9 100480 41
2010-11-26 09:20:20 51°27.354 2°46.454 -999 350 2.9 100480 41
2010-11-26 09:20:26 51°27.365 2°46.481 -999 350 3 100460 41
2010-11-26 09:20:31 51°27.374 2°46.504 -999 350 3 100460 41
2010-11-26 09:20:35 51°27.382 2°46.522 -999 353 3 100470 41
2010-11-26 09:20:40 51°27.39 2°46.547 -999 349 3 100470 41
2010-11-26 09:20:46 51°27.401 2°46.573 -999 349 3 100460 41
2010-11-26 09:20:51 51°27.411 2°46.596 -999 351 3 100460 41
2010-11-26 09:20:55 51°27.417 2°46.615 -999 350 3 100470 41
2010-11-26 09:21:00 51°27.427 2°46.638 -999 346 3 100470 41
2010-11-26 09:21:06 51°27.437 2°46.666 -999 348 3 100470 41
2010-11-26 09:21:11 51°27.447 2°46.689 -999 346 3 100470 41
2010-11-26 09:21:15 51°27.455 2°46.707 -999 357 3 100460 41
2010-11-26 09:21:20 51°27.463 2°46.73 -999 349 3 100460 41
2010-11-26 09:21:26 51°27.473 2°46.758 -999 284 3 100470 41
2010-11-26 09:21:31 51°27.483 2°46.781 -999 347 3 100470 41
2010-11-26 09:21:35 51°27.491 2°46.798 -999 354 3 100470 41
2010-11-26 09:21:41 51°27.5 2°46.827 -999 342 3 100470 41
2010-11-26 09:21:46 51°27.51 2°46.848 -999 284 3 100480 41
2010-11-26 09:21:51 51°27.52 2°46.87 -999 339 3 100480 41
2010-11-26 09:21:55 51°27.527 2°46.888 -999 342 3 100470 41
2010-11-26 09:22:00 51°27.536 2°46.91 -999 354 3 100470 41